Terminal Aerodrome Forecast
Issued by NWS Huntsville, AL

Home | Current Version | Previous Version | Text Only | Print | Product List | Glossary On
Versions: 1 2 3 4 5 6 7 8 9 10 11 12 13 14 15 16 17 18 19 20 21 22 23 24 25 26 27 28 29 30
000
FTUS44 KHUN 211225 AAA
TAFMSL
TAF AMD
KMSL 211225Z 2112/2212 08005KT P6SM FEW030 SCT250
     FM211500 12005KT P6SM SCT010 OVC030
     FM220800 15004KT 5SM -RA BR FEW007 OVC015=

USA.gov is the U.S. government's official web portal to all federal, state and local government web resources and services.